Tracking 19832 objects as of 24-Aug-2019
HD Live streaming from Space Station
objects crossing your sky now

FLOCK 4A 14

Track FLOCK 4A 14 now!
10-day predictions
FLOCK 4A 14 is classified as:


NORAD ID: 44101
Int'l Code: 2019-018Z
Perigee: 496.4 km
Apogee: 514.9 km
Inclination: 97.5 °
Period: 94.6 minutes
Semi major axis: 6876 km
RCS: Unknown
Launch date: April 1, 2019
Source: United States (US)
Launch site: SRIHARIKOTA (SRI)
aabbcc
Your satellite tracking list
Your tracking list is empty




NASA's NSSDC Master Catalog

Two Line Element Set (TLE):
1 44101U 19018Z   19236.73963437  .00001080  00000-0  49663-4 0  9993
2 44101  97.4515 296.1296 0013449 142.4599 217.7578 15.22434421 22125
Source of the keplerian elements: AFSPC